Lid_Strength_Index
11 14 15 13 12 12 13 14 16 16 13 13 13 13 12 11 10 11 8 7 7 7 6 4 4 4 3 3 2 2 2 1 1 2 2 2 2 2 2 2 2 0 0 0
14 15 12 10 10 11 12 14 15 13 11 12 13 14 12 11 11 10 8 8 7 6 5 5 3 3 4 2 2 1 2 1 2 2 1 2 2 2 2 3 3 3 1 1
17 14 10 11 11 12 12 13 13 14 12 11 13 14 13 11 10 9 6 6 6 6 6 5 4 3 3 3 2 2 1 2 2 2 2 3 4 5 5 5 4 4 3 1
14 12 11 11 11 10 13 10 10 11 13 16 13 17 13 12 11 9 8 7 6 6 5 5 4 4 3 3 2 2 1 2 2 2 2 3 3 3 5 6 5 5 4 2
14 12 12 12 11 8 11 8 10 10 12 14 14 16 14 11 11 11 9 7 6 6 5 5 4 4 3 2 2 2 1 2 2 2 2 4 4 7 6 6 6 6 6 4
12 9 9 10 9 8 8 10 10 11 12 17 14 15 16 13 11 10 9 7 6 6 5 5 4 3 3 2 2 2 2 2 2 2 2 4 6 6 6 7 6 6 5 4
12 11 8 7 10 9 10 13 19 18 17 17 12 15 14 10 9 9 8 8 6 6 6 5 5 4 4 3 2 2 2 2 2 2 3 5 5 5 6 6 6 6 5 5
16 17 10 7 10 12 12 13 18 22 20 17 12 16 13 9 8 8 7 7 5 6 6 5 5 4 4 3 3 2 2 2 2 3 4 5 5 6 6 6 6 5 6 4
16 15 9 8 8 9 13 15 11 16 14 17 15 13 10 8 8 8 7 7 6 6 6 5 5 4 4 3 3 2 2 2 2 3 4 5 5 6 6 7 6 6 6 3
12 16 11 10 8 9 11 9 16 16 20 19 16 15 15 13 12 9 9 8 7 6 6 5 5 4 3 3 2 2 2 2 3 3 4 5 6 6 6 5 5 6 5 3
13 13 14 11 11 13 12 14 13 13 14 17 19 17 11 12 10 10 9 8 6 6 6 5 5 4 3 3 3 3 2 2 3 3 4 5 5 6 5 5 6 5 5 4
12 13 16 14 10 9 11 12 13 18 18 15 16 17 9 9 9 9 9 8 6 6 6 5 5 4 4 3 3 3 2 2 2 3 5 5 5 5 5 5 5 5 5 4
11 15 18 16 13 10 13 11 10 11 13 15 19 17 9 9 9 8 9 8 7 6 6 5 5 5 4 4 3 3 2 2 2 3 5 5 5 5 5 5 5 5 5 4
10 14 17 19 16 13 14 13 12 12 16 15 16 15 12 10 10 10 9 8 7 7 6 6 5 5 4 4 4 3 3 2 2 3 5 6 5 6 5 6 6 5 4 4
12 17 15 14 14 15 15 14 14 14 13 16 15 14 12 11 11 11 10 10 7 7 6 6 6 5 4 4 3 3 3 2 2 3 4 5 5 5 6 6 5 5 5 4
12 16 14 15 13 15 17 16 15 15 15 14 14 15 12 11 11 12 12 12 11 9 6 5 5 5 4 4 3 3 3 2 2 3 3 4 5 5 6 7 6 6 6 5
13 14 16 17 14 14 18 18 16 16 15 15 18 15 13 12 13 14 13 13 13 11 10 8 5 4 4 4 3 3 3 2 2 2 3 4 5 5 6 7 5 7 7 6
14 14 15 17 18 23 17 14 14 16 16 15 15 14 14 13 12 13 13 13 13 12 11 10 8 5 4 3 3 2 2 2 2 2 3 4 5 5 6 7 6 6 7 7
12 14 18 21 20 18 17 16 16 17 18 15 15 14 14 14 12 14 13 12 13 12 11 10 6 5 3 3 2 3 3 2 3 3 4 5 5 5 6 7 7 6 7 7
13 13 18 20 24 26 18 15 13 12 19 14 14 15 15 15 18 16 13 13 13 12 11 11 8 7 5 3 2 3 3 3 3 3 3 4 4 5 6 6 7 7 7 8
17 17 20 20 21 18 15 13 12 20 19 13 13 14 15 16 15 13 12 13 13 12 12 10 9 9 9 8 2 3 3 3 3 3 3 4 4 4 5 5 6 6 7 7
19 21 20 20 21 23 12 13 17 15 12 12 12 13 14 14 14 13 13 13 13 13 12 11 11 11 10 9 9 8 8 5 2 2 3 3 3 4 5 6 6 7 7 7
18 16 17 17 18 13 11 12 12 11 12 12 12 12 12 13 14 14 14 14 13 13 13 13 12 12 12 11 11 12 11 7 2 3 4 3 3 4 5 5 6 7 7 7
14 12 15 15 13 12 12 10 10 10 11 11 11 11 12 13 13 14 15 15 14 13 14 13 13 13 13 12 12 12 11 8 4 3 3 3 3 5 5 5 6 6 7 7
13 13 14 14 12 11 11 10 9 10 10 10 10 11 11 12 13 13 13 14 14 14 14 14 15 15 14 13 13 13 12 10 7 5 3 4 4 5 5 5 5 6 6 6
13 15 17 18 12 13 12 10 9 10 10 10 10 11 10 11 12 12 13 13 14 14 14 14 14 14 13 13 13 13 12 11 10 9 9 6 4 4 5 5 8 11 9 11